BEIDOU-3 M9 (C29)

Last updated on Sat Aug 15 2026 00:03:26 GMT+0000 (Coordinated Universal Time)

1 43245U 18029A 26225.40340433 -.00000055 00000+0 00000+0 0 9995 2 43245 54.1392 297.9441 0001483 210.4100 149.6547 1.86228034 56960
UTC large
Height (km)
Speed (km/s)
/
Latitude / Longitude
Inclination (degrees)
Orbital Period (minutes)
Azimuth
Elevation
Range (km)
Doppler Factor

Next 0 passes for location: London (51.5072 / 0.1276)

No passes found over London.
BEIDOU-3 M9 (C29)